SCP
0 0 0 0 -0 0 -0 0 0 0 0 0 1 1 0 0 0 0 0 0 0 0 1 0 0 0 0 0 0 0 0 0 0 0 0 0 0 0 0 0 0 0 0 0
0 0 0 0 -0 -0 0 0 0 0 0 0 0 2 2 0 0 0 0 0 0 0 0 0 0 0 0 0 0 0 0 0 0 0 0 0 0 0 0 0 0 0 0 0
0 -0 -0 -0 0 0 0 0 0 -0 1 1 0 0 1 0 0 0 0 0 0 0 0 0 0 0 0 0 0 0 0 0 0 0 0 0 0 0 0 0 0 0 0 0
0 0 0 -0 0 0 0 0 1 1 0 0 0 0 1 1 0 0 0 0 0 0 0 0 0 0 0 0 0 0 0 0 0 0 0 0 0 0 0 0 0 0 0 0
0 0 0 0 0 0 0 0 0 0 0 0 1 1 1 0 0 0 0 0 0 0 0 0 0 0 0 0 0 0 0 0 0 0 0 0 -0 0 0 0 0 0 0 0
0 0 0 1 0 -0 0 0 0 -0 -0 -0 0 0 0 0 0 0 0 0 0 0 0 0 0 0 0 0 0 0 0 0 0 0 0 0 0 0 0 0 0 0 0 0
1 0 0 0 0 0 0 0 1 0 -0 0 0 1 0 0 0 0 0 0 0 0 0 0 0 0 0 0 0 0 0 0 0 0 0 0 0 0 0 0 0 0 0 0
1 0 0 -0 0 1 1 1 1 0 0 -0 0 0 0 0 0 0 0 0 0 0 0 0 0 0 0 0 0 0 0 0 0 0 0 0 0 0 0 0 -0 -0 -0 -0
1 0 0 0 0 1 1 0 1 0 -0 -0 -0 -0 -0 0 0 0 0 0 0 0 0 0 0 0 0 0 0 0 0 0 0 0 0 0 0 0 -0 0 0 0 -0 -0
1 1 1 1 0 0 1 0 -0 -1 -0 -0 -0 -0 -0 0 0 0 0 0 0 0 0 0 0 0 0 0 0 0 0 0 0 0 0 0 0 0 0 0 -0 -0 -0 0
2 1 1 1 0 0 -0 0 -0 0 -0 -0 0 0 0 0 0 0 0 0 0 0 0 0 0 0 0 0 0 0 0 0 0 0 0 0 0 0 0 -0 0 0 0 0
2 0 1 0 0 0 0 -0 0 0 0 0 0 0 0 0 0 0 0 0 0 0 0 0 0 0 0 0 0 0 0 0 0 0 0 0 0 0 -0 0 0 -0 0 0
2 0 0 1 0 0 -0 -0 0 0 0 0 0 0 0 0 0 0 0 0 0 0 0 0 0 0 0 0 0 0 0 0 0 0 0 0 0 0 0 0 0 0 0 -0
1 0 1 0 0 0 0 -0 0 0 0 0 0 0 0 0 0 0 0 0 0 0 0 0 0 0 0 0 0 0 0 0 0 0 0 0 0 0 0 0 0 0 0 0
0 0 0 0 0 0 0 0 -0 0 0 0 0 0 0 0 0 0 0 0 0 0 0 0 0 0 0 0 0 0 0 0 0 0 0 0 0 0 0 0 0 0 -0 0
0 0 0 0 0 0 -0 -0 -0 0 0 0 0 0 0 0 0 0 0 0 0 0 0 0 0 0 0 0 0 0 0 0 0 0 0 0 0 0 0 0 0 0 0 0
0 0 0 0 0 -0 -0 0 0 0 0 0 0 0 0 0 0 0 0 0 0 0 0 0 0 0 0 0 -0 0 0 0 -0 0 0 0 0 0 0 0 0 -0 -0 -0
0 0 0 0 0 -0 -0 0 0 0 0 0 -0 -0 -0 -0 0 0 0 0 0 0 0 0 0 0 0 -0 -0 -0 0 0 0 -0 0 0 0 0 0 0 0 0 -0 0
0 0 0 0 0 0 0 0 0 0 0 0 0 -0 -0 0 0 0 0 0 0 0 0 0 0 0 0 -0 -0 -0 0 0 0 0 0 0 0 0 0 0 0 0 0 0
0 0 0 0 0 0 0 0 0 0 0 0 0 0 0 -0 0 0 0 0 0 0 0 0 0 0 0 0 -0 -0 -0 0 0 0 0 0 0 0 0 0 0 0 0 0
0 0 0 0 0 0 0 0 0 0 0 0 0 0 0 0 0 0 0 0 0 0 0 0 0 0 -0 0 -0 0 -0 0 0 0 0 0 0 0 0 0 0 0 0 0
0 0 0 0 0 0 0 0 0 0 0 0 0 0 0 0 0 0 0 0 0 0 0 0 0 -0 -0 -0 -0 -0 -0 0 0 0 0 0 0 0 0 0 0 0 0 0
0 0 0 0 0 0 0 0 0 0 0 0 0 0 0 0 0 0 0 0 0 0 0 -0 0 0 0 -0 -0 -0 -0 0 0 0 0 0 0 0 0 0 0 0 0 0
1 0 0 0 0 0 0 0 0 0 0 0 0 0 0 0 0 0 0 0 0 0 0 0 0 0 0 -0 -0 -0 -0 0 0 0 0 0 0 0 0 0 0 0 0 0
0 0 0 0 0 0 0 0 0 0 0 0 0 0 0 0 0 0 0 0 0 0 0 0 0 0 0 -0 -0 -0 -0 0 0 0 0 0 0 0 0 0 0 0 0 0
1 0 1 0 0 0 0 0 0 0 0 0 0 0 0 0 0 0 0 0 0 0 0 0 0 0 0 -0 -0 -0 -0 0 0 0 -0 0 0 0 0 0 0 0 0 0
1 0 0 0 0 0 0 0 0 0 0 0 0 0 0 0 0 0 0 0 0 0 0 0 0 0 0 0 -0 -0 0 0 0 0 0 0 0 0 0 0 0 0 0 0
Wind_Speed_500mb
42 37 45 41 42 39 40 33 23 19 27 43 49 41 41 35 39 38 35 31 24 23 30 26 19 18 22 20 18 20 26 24 24 29 26 27 32 35 35 29 22 19 19 18
34 29 33 45 42 43 41 30 26 26 39 39 63 45 42 23 11 32 30 24 21 27 27 25 27 23 21 22 24 24 21 25 24 26 31 32 28 26 23 21 19 17 17 18
33 46 45 39 44 44 31 29 32 35 31 48 40 37 42 37 40 31 24 23 22 20 13 15 18 20 22 21 17 17 19 23 24 24 24 24 27 26 23 17 14 16 20 26
26 26 24 26 34 22 29 33 47 51 40 46 45 46 32 36 36 28 24 24 29 25 19 20 18 28 27 19 21 16 18 23 25 24 20 16 14 16 19 15 15 20 25 25
19 22 11 15 9 2 25 24 62 43 10 40 49 47 30 29 28 25 25 24 24 19 25 25 26 19 22 21 13 22 26 26 25 21 20 20 20 17 14 14 21 18 19 24
17 16 20 23 43 37 22 21 46 79 56 58 58 25 20 35 34 25 26 23 24 23 26 21 21 20 14 14 16 24 29 24 15 13 19 23 13 15 16 16 17 14 20 20
25 14 11 37 43 39 22 10 45 55 61 56 20 19 66 44 36 31 33 28 27 27 25 21 17 14 15 23 31 30 26 29 24 19 17 16 14 10 16 16 16 12 12 17
26 8 8 68 26 9 20 45 48 57 51 55 60 60 58 44 41 36 35 32 25 24 23 22 17 16 18 28 36 30 23 23 19 17 10 12 14 14 12 17 16 14 8 4
7 3 61 82 25 29 36 53 54 58 57 62 56 51 47 46 39 36 31 31 25 25 28 21 20 28 32 36 28 27 25 19 20 15 10 14 8 11 13 5 7 14 19 26
15 24 31 41 43 47 40 48 63 66 58 53 56 50 48 41 42 40 34 31 33 29 26 26 35 33 19 22 27 16 16 19 9 10 11 7 8 11 18 5 5 10 22 19
16 29 37 45 44 54 56 59 58 53 53 56 57 48 49 45 42 38 35 33 28 26 22 22 23 20 18 15 16 11 20 15 10 8 10 5 4 2 3 6 9 11 12 9
18 51 20 47 55 57 58 56 56 58 54 50 48 53 49 47 44 38 33 28 27 27 25 20 16 13 12 10 10 12 17 19 11 9 16 14 2 1 3 8 9 11 14 21
22 53 58 64 60 56 60 56 53 53 55 54 47 50 47 49 39 40 33 33 29 27 22 16 15 5 5 3 8 14 11 28 13 13 13 9 6 3 5 9 12 13 15 19
80 80 60 63 64 60 58 55 53 50 50 51 51 48 43 44 40 36 31 29 29 22 14 12 13 11 9 8 6 8 22 24 14 8 3 3 4 5 10 8 12 16 14 12
72 65 77 70 64 61 61 59 56 52 50 50 49 44 43 44 38 35 31 25 23 19 16 10 14 13 12 7 14 14 19 14 10 4 5 6 4 4 7 3 11 7 12 12
57 64 67 69 67 64 58 56 54 53 50 50 47 43 43 39 37 40 26 25 22 21 15 12 18 16 12 10 11 8 13 12 8 4 12 3 1 5 5 5 7 11 3 14
69 60 64 65 67 62 58 52 50 50 50 51 44 51 43 42 35 25 30 23 21 20 18 14 20 19 14 9 14 6 11 4 15 10 5 6 9 0 3 3 4 5 12 24
55 58 58 64 65 60 54 49 48 47 48 45 45 49 44 43 34 35 27 22 18 17 20 18 21 21 14 12 12 6 7 8 6 7 6 5 3 2 2 2 3 4 9 18
52 53 51 51 51 53 52 50 48 45 44 46 44 49 39 34 33 36 28 25 28 23 19 18 25 19 15 16 19 14 12 14 6 8 9 9 7 2 2 1 3 4 5 6
56 49 46 46 47 49 51 50 49 45 43 43 41 41 38 34 41 40 23 24 19 17 20 29 26 19 13 9 30 14 8 10 10 5 5 4 5 5 6 10 8 3 3 3
46 51 49 47 49 49 50 51 49 47 44 41 41 39 37 39 34 30 25 18 19 18 24 23 22 22 14 12 24 12 14 12 10 9 5 8 6 6 6 5 4 3 3 3
48 50 51 50 51 50 51 49 46 45 44 41 38 39 41 37 32 29 20 22 25 25 25 22 21 28 20 27 22 20 15 11 11 9 9 9 8 8 8 7 6 5 3 3
48 52 53 52 52 51 49 46 44 42 41 40 38 44 40 36 32 29 19 20 31 21 21 21 26 26 22 23 20 22 14 12 12 13 13 12 12 11 11 10 9 8 7 6
50 54 55 53 53 50 47 43 42 40 37 36 33 34 37 33 32 25 24 23 21 14 26 15 21 24 26 25 19 20 17 18 18 16 16 16 13 13 13 13 10 10 12 16
55 56 56 56 53 51 46 42 41 36 36 33 34 30 30 29 29 30 30 27 33 30 27 30 22 22 24 24 22 21 19 18 19 19 17 17 15 15 14 13 12 13 11 11
55 56 54 53 49 50 45 42 38 38 37 35 33 33 28 26 27 23 29 28 27 33 27 26 20 26 24 21 17 18 18 19 17 19 14 16 16 15 15 15 16 15 17 13
50 48 51 46 41 42 41 43 39 39 37 34 31 30 29 28 27 28 29 21 20 20 27 28 18 21 23 20 16 16 18 17 15 15 19 17 16 16 17 15 17 16 14 14
Wind_Direction_500mb
248 286 201 200 216 219 214 213 228 240 142 155 136 131 150 174 156 129 127 125 120 107 98 101 94 78 86 95 89 85 96 98 100 109 107 112 109 106 107 104 99 89 85 83
249 250 224 198 198 229 204 191 213 181 84 107 106 118 106 127 169 120 113 112 116 101 117 110 100 110 107 99 107 113 98 99 102 106 120 118 120 120 113 98 80 66 61 74
246 217 226 204 192 206 199 214 217 225 126 121 131 153 150 166 124 121 124 120 119 117 129 129 129 121 110 123 107 121 122 133 142 140 130 121 112 106 95 84 75 72 90 96
246 242 217 172 194 215 195 126 99 103 138 136 142 152 138 127 123 128 135 126 119 122 125 123 118 111 124 125 121 125 137 142 125 125 108 97 103 97 90 82 78 88 95 95
245 235 137 160 58 198 174 92 110 94 354 134 131 120 115 134 142 140 131 123 126 125 119 119 119 124 128 132 120 114 124 124 117 113 112 110 103 105 96 103 96 98 92 92
222 222 202 169 160 199 140 163 121 144 149 150 149 150 149 150 141 135 132 136 141 132 123 124 110 123 110 106 124 135 130 119 98 104 108 106 110 102 95 109 110 108 97 85
241 207 295 322 167 164 175 144 117 132 140 156 156 106 140 137 133 132 147 136 134 134 129 131 143 141 116 132 133 122 103 100 99 96 99 112 108 113 136 143 137 124 118 83
242 205 29 289 48 84 109 116 126 126 138 117 117 121 130 134 145 146 137 133 132 129 128 132 129 113 124 146 141 129 109 105 98 102 91 76 106 114 121 100 80 76 78 100
354 95 139 192 142 117 128 120 120 120 123 124 127 131 134 138 140 136 132 133 136 133 127 132 128 138 143 152 150 142 133 121 105 92 78 73 115 136 100 93 288 27 99 103
128 125 120 115 125 130 131 124 123 126 131 135 136 138 137 138 139 136 130 129 126 122 121 131 145 149 160 161 161 158 148 135 139 110 104 138 140 100 141 139 103 38 59 27
135 132 128 129 137 130 124 121 126 132 137 139 138 139 141 139 141 141 136 132 131 121 123 132 150 159 168 167 160 169 146 147 142 63 117 136 159 33 318 309 327 324 343 356
175 162 150 149 137 136 135 139 139 139 139 139 141 141 142 140 143 139 137 138 139 134 134 138 139 159 176 194 193 178 174 164 159 126 140 125 57 66 44 33 22 352 349 340
140 176 143 138 141 142 141 140 140 140 142 139 141 142 142 137 142 141 144 141 137 141 134 148 171 146 142 195 231 209 200 163 171 131 160 154 47 24 356 342 349 2 0 345
143 136 136 146 142 141 139 138 137 138 141 141 142 143 141 145 145 148 146 149 148 151 143 147 151 143 146 164 179 193 152 164 130 138 95 124 57 292 316 343 0 352 339 357
140 144 141 140 138 139 139 141 140 142 145 144 145 145 148 148 153 149 151 156 152 156 150 144 146 137 159 155 129 111 141 150 164 184 127 118 350 279 330 293 340 281 317 357
136 137 141 141 143 144 146 148 146 149 151 152 150 152 155 156 154 162 165 163 176 174 157 168 154 147 166 160 137 159 178 187 168 173 180 187 283 254 247 356 27 43 126 311
139 146 150 148 150 152 153 153 154 155 155 154 156 160 154 158 156 149 151 174 188 189 187 186 182 179 170 158 169 187 154 318 186 175 204 210 284 29 2 17 27 286 330 15
150 152 153 149 151 153 155 156 157 159 160 160 157 158 162 163 168 171 178 189 185 193 175 171 182 191 188 185 197 175 195 174 187 192 228 204 164 98 98 43 50 44 353 32
150 151 151 151 154 156 155 155 157 160 163 161 163 167 168 174 178 171 177 175 169 181 201 197 187 185 192 208 199 203 255 214 199 170 217 245 147 137 122 83 95 94 88 53
146 149 150 155 156 157 152 152 154 157 161 162 163 161 162 170 169 159 173 189 213 212 211 211 205 181 200 250 212 239 230 198 194 213 161 179 187 216 268 184 126 102 101 94
152 151 155 162 157 154 152 154 155 158 161 165 167 167 169 175 170 178 176 187 214 198 183 207 196 191 199 211 219 237 210 178 199 202 222 191 225 192 179 174 179 164 142 102
161 159 161 159 156 150 152 154 158 161 164 166 171 173 180 169 175 190 201 200 208 201 221 199 207 203 224 215 220 239 218 182 201 214 216 222 225 218 215 212 213 209 193 195
160 157 158 157 154 151 151 157 161 166 169 170 176 181 182 185 195 177 194 199 195 198 196 208 223 205 225 198 219 235 259 213 207 229 228 235 234 230 228 230 224 225 234 239
153 157 157 158 153 153 158 165 166 171 172 177 179 194 185 174 185 191 188 200 211 211 187 230 195 216 226 230 236 242 257 218 226 231 237 235 234 231 224 237 240 230 241 263
159 157 156 156 157 160 161 167 165 171 175 178 181 187 184 188 192 193 204 207 208 205 211 228 223 230 247 224 215 244 237 231 227 229 226 230 226 229 230 225 231 230 234 244
159 157 157 162 168 164 167 173 174 176 177 178 181 186 191 194 190 196 182 188 203 212 206 230 238 241 223 215 240 232 230 225 219 229 235 219 226 225 226 227 242 250 245 228
158 164 165 167 173 167 177 179 178 179 180 181 182 186 188 185 189 186 190 195 201 201 199 212 222 229 206 219 232 225 228 232 227 229 224 230 227 230 232 234 234 239 244 243
Wind_Speed_850mb
42 37 45 41 42 39 40 33 23 19 27 43 49 41 41 35 39 38 35 31 24 23 30 26 19 18 22 20 18 20 26 24 24 29 26 27 32 35 35 29 22 19 19 18
34 29 33 45 42 43 41 30 26 26 39 39 63 45 42 23 11 32 30 24 21 27 27 25 27 23 21 22 24 24 21 25 24 26 31 32 28 26 23 21 19 17 17 18
33 46 45 39 44 44 31 29 32 35 31 48 40 37 42 37 40 31 24 23 22 20 13 15 18 20 22 21 17 17 19 23 24 24 24 24 27 26 23 17 14 16 20 26
26 26 24 26 34 22 29 33 47 51 40 46 45 46 32 36 36 28 24 24 29 25 19 20 18 28 27 19 21 16 18 23 25 24 20 16 14 16 19 15 15 20 25 25
19 22 11 15 9 2 25 24 62 43 10 40 49 47 30 29 28 25 25 24 24 19 25 25 26 19 22 21 13 22 26 26 25 21 20 20 20 17 14 14 21 18 19 24
17 16 20 23 43 37 22 21 46 79 56 58 58 25 20 35 34 25 26 23 24 23 26 21 21 20 14 14 16 24 29 24 15 13 19 23 13 15 16 16 17 14 20 20
25 14 11 37 43 39 22 10 45 55 61 56 20 19 66 44 36 31 33 28 27 27 25 21 17 14 15 23 31 30 26 29 24 19 17 16 14 10 16 16 16 12 12 17
26 8 8 68 26 9 20 45 48 57 51 55 60 60 58 44 41 36 35 32 25 24 23 22 17 16 18 28 36 30 23 23 19 17 10 12 14 14 12 17 16 14 8 4
7 3 61 82 25 29 36 53 54 58 57 62 56 51 47 46 39 36 31 31 25 25 28 21 20 28 32 36 28 27 25 19 20 15 10 14 8 11 13 5 7 14 19 26
15 24 31 41 43 47 40 48 63 66 58 53 56 50 48 41 42 40 34 31 33 29 26 26 35 33 19 22 27 16 16 19 9 10 11 7 8 11 18 5 5 10 22 19
16 29 37 45 44 54 56 59 58 53 53 56 57 48 49 45 42 38 35 33 28 26 22 22 23 20 18 15 16 11 20 15 10 8 10 5 4 2 3 6 9 11 12 9
18 51 20 47 55 57 58 56 56 58 54 50 48 53 49 47 44 38 33 28 27 27 25 20 16 13 12 10 10 12 17 19 11 9 16 14 2 1 3 8 9 11 14 21
22 53 58 64 60 56 60 56 53 53 55 54 47 50 47 49 39 40 33 33 29 27 22 16 15 5 5 3 8 14 11 28 13 13 13 9 6 3 5 9 12 13 15 19
80 80 60 63 64 60 58 55 53 50 50 51 51 48 43 44 40 36 31 29 29 22 14 12 13 11 9 8 6 8 22 24 14 8 3 3 4 5 10 8 12 16 14 12
72 65 77 70 64 61 61 59 56 52 50 50 49 44 43 44 38 35 31 25 23 19 16 10 14 13 12 7 14 14 19 14 10 4 5 6 4 4 7 3 11 7 12 12
57 64 67 69 67 64 58 56 54 53 50 50 47 43 43 39 37 40 26 25 22 21 15 12 18 16 12 10 11 8 13 12 8 4 12 3 1 5 5 5 7 11 3 14
69 60 64 65 67 62 58 52 50 50 50 51 44 51 43 42 35 25 30 23 21 20 18 14 20 19 14 9 14 6 11 4 15 10 5 6 9 0 3 3 4 5 12 24
55 58 58 64 65 60 54 49 48 47 48 45 45 49 44 43 34 35 27 22 18 17 20 18 21 21 14 12 12 6 7 8 6 7 6 5 3 2 2 2 3 4 9 18
52 53 51 51 51 53 52 50 48 45 44 46 44 49 39 34 33 36 28 25 28 23 19 18 25 19 15 16 19 14 12 14 6 8 9 9 7 2 2 1 3 4 5 6
56 49 46 46 47 49 51 50 49 45 43 43 41 41 38 34 41 40 23 24 19 17 20 29 26 19 13 9 30 14 8 10 10 5 5 4 5 5 6 10 8 3 3 3
46 51 49 47 49 49 50 51 49 47 44 41 41 39 37 39 34 30 25 18 19 18 24 23 22 22 14 12 24 12 14 12 10 9 5 8 6 6 6 5 4 3 3 3
48 50 51 50 51 50 51 49 46 45 44 41 38 39 41 37 32 29 20 22 25 25 25 22 21 28 20 27 22 20 15 11 11 9 9 9 8 8 8 7 6 5 3 3
48 52 53 52 52 51 49 46 44 42 41 40 38 44 40 36 32 29 19 20 31 21 21 21 26 26 22 23 20 22 14 12 12 13 13 12 12 11 11 10 9 8 7 6
50 54 55 53 53 50 47 43 42 40 37 36 33 34 37 33 32 25 24 23 21 14 26 15 21 24 26 25 19 20 17 18 18 16 16 16 13 13 13 13 10 10 12 16
55 56 56 56 53 51 46 42 41 36 36 33 34 30 30 29 29 30 30 27 33 30 27 30 22 22 24 24 22 21 19 18 19 19 17 17 15 15 14 13 12 13 11 11
55 56 54 53 49 50 45 42 38 38 37 35 33 33 28 26 27 23 29 28 27 33 27 26 20 26 24 21 17 18 18 19 17 19 14 16 16 15 15 15 16 15 17 13
50 48 51 46 41 42 41 43 39 39 37 34 31 30 29 28 27 28 29 21 20 20 27 28 18 21 23 20 16 16 18 17 15 15 19 17 16 16 17 15 17 16 14 14
Wind_Direction_850mb
248 286 201 200 216 219 214 213 228 240 142 155 136 131 150 174 156 129 127 125 120 107 98 101 94 78 86 95 89 85 96 98 100 109 107 112 109 106 107 104 99 89 85 83
249 250 224 198 198 229 204 191 213 181 84 107 106 118 106 127 169 120 113 112 116 101 117 110 100 110 107 99 107 113 98 99 102 106 120 118 120 120 113 98 80 66 61 74
246 217 226 204 192 206 199 214 217 225 126 121 131 153 150 166 124 121 124 120 119 117 129 129 129 121 110 123 107 121 122 133 142 140 130 121 112 106 95 84 75 72 90 96
246 242 217 172 194 215 195 126 99 103 138 136 142 152 138 127 123 128 135 126 119 122 125 123 118 111 124 125 121 125 137 142 125 125 108 97 103 97 90 82 78 88 95 95
245 235 137 160 58 198 174 92 110 94 354 134 131 120 115 134 142 140 131 123 126 125 119 119 119 124 128 132 120 114 124 124 117 113 112 110 103 105 96 103 96 98 92 92
222 222 202 169 160 199 140 163 121 144 149 150 149 150 149 150 141 135 132 136 141 132 123 124 110 123 110 106 124 135 130 119 98 104 108 106 110 102 95 109 110 108 97 85
241 207 295 322 167 164 175 144 117 132 140 156 156 106 140 137 133 132 147 136 134 134 129 131 143 141 116 132 133 122 103 100 99 96 99 112 108 113 136 143 137 124 118 83
242 205 29 289 48 84 109 116 126 126 138 117 117 121 130 134 145 146 137 133 132 129 128 132 129 113 124 146 141 129 109 105 98 102 91 76 106 114 121 100 80 76 78 100
354 95 139 192 142 117 128 120 120 120 123 124 127 131 134 138 140 136 132 133 136 133 127 132 128 138 143 152 150 142 133 121 105 92 78 73 115 136 100 93 288 27 99 103
128 125 120 115 125 130 131 124 123 126 131 135 136 138 137 138 139 136 130 129 126 122 121 131 145 149 160 161 161 158 148 135 139 110 104 138 140 100 141 139 103 38 59 27
135 132 128 129 137 130 124 121 126 132 137 139 138 139 141 139 141 141 136 132 131 121 123 132 150 159 168 167 160 169 146 147 142 63 117 136 159 33 318 309 327 324 343 356
175 162 150 149 137 136 135 139 139 139 139 139 141 141 142 140 143 139 137 138 139 134 134 138 139 159 176 194 193 178 174 164 159 126 140 125 57 66 44 33 22 352 349 340
140 176 143 138 141 142 141 140 140 140 142 139 141 142 142 137 142 141 144 141 137 141 134 148 171 146 142 195 231 209 200 163 171 131 160 154 47 24 356 342 349 2 0 345
143 136 136 146 142 141 139 138 137 138 141 141 142 143 141 145 145 148 146 149 148 151 143 147 151 143 146 164 179 193 152 164 130 138 95 124 57 292 316 343 0 352 339 357
140 144 141 140 138 139 139 141 140 142 145 144 145 145 148 148 153 149 151 156 152 156 150 144 146 137 159 155 129 111 141 150 164 184 127 118 350 279 330 293 340 281 317 357
136 137 141 141 143 144 146 148 146 149 151 152 150 152 155 156 154 162 165 163 176 174 157 168 154 147 166 160 137 159 178 187 168 173 180 187 283 254 247 356 27 43 126 311
139 146 150 148 150 152 153 153 154 155 155 154 156 160 154 158 156 149 151 174 188 189 187 186 182 179 170 158 169 187 154 318 186 175 204 210 284 29 2 17 27 286 330 15
150 152 153 149 151 153 155 156 157 159 160 160 157 158 162 163 168 171 178 189 185 193 175 171 182 191 188 185 197 175 195 174 187 192 228 204 164 98 98 43 50 44 353 32
150 151 151 151 154 156 155 155 157 160 163 161 163 167 168 174 178 171 177 175 169 181 201 197 187 185 192 208 199 203 255 214 199 170 217 245 147 137 122 83 95 94 88 53
146 149 150 155 156 157 152 152 154 157 161 162 163 161 162 170 169 159 173 189 213 212 211 211 205 181 200 250 212 239 230 198 194 213 161 179 187 216 268 184 126 102 101 94
152 151 155 162 157 154 152 154 155 158 161 165 167 167 169 175 170 178 176 187 214 198 183 207 196 191 199 211 219 237 210 178 199 202 222 191 225 192 179 174 179 164 142 102
161 159 161 159 156 150 152 154 158 161 164 166 171 173 180 169 175 190 201 200 208 201 221 199 207 203 224 215 220 239 218 182 201 214 216 222 225 218 215 212 213 209 193 195
160 157 158 157 154 151 151 157 161 166 169 170 176 181 182 185 195 177 194 199 195 198 196 208 223 205 225 198 219 235 259 213 207 229 228 235 234 230 228 230 224 225 234 239
153 157 157 158 153 153 158 165 166 171 172 177 179 194 185 174 185 191 188 200 211 211 187 230 195 216 226 230 236 242 257 218 226 231 237 235 234 231 224 237 240 230 241 263
159 157 156 156 157 160 161 167 165 171 175 178 181 187 184 188 192 193 204 207 208 205 211 228 223 230 247 224 215 244 237 231 227 229 226 230 226 229 230 225 231 230 234 244
159 157 157 162 168 164 167 173 174 176 177 178 181 186 191 194 190 196 182 188 203 212 206 230 238 241 223 215 240 232 230 225 219 229 235 219 226 225 226 227 242 250 245 228
158 164 165 167 173 167 177 179 178 179 180 181 182 186 188 185 189 186 190 195 201 201 199 212 222 229 206 219 232 225 228 232 227 229 224 230 227 230 232 234 234 239 244 243